Location: Unspecified
(41.1637°N, 24.2901°E)
Time: 15:46:31
(UTC+02:00)

ISS - Pass Details

Date: 10 October 2019
Orbit: 411 x 421 km, 51.6° (Epoch: 18 October)

Event Time Altitude Azimuth Distance (km) Brightness Sun altitude
Rises 18:09:20 0° 304° (NW) 2,347 0.9 -4.3°
Reaches altitude 10° 18:11:26 10° 303° (WNW) 1,481 -0.1 -4.7°
Maximum altitude 18:14:45 77° 219° (SW) 425 -3.6 -5.3°
Drops below altitude 10° 18:18:03 10° 132° (SE) 1,472 -1.4 -5.9°
Enters shadow 18:19:58 - 131° (SE) 2,264 -0.5 -6.3°
